User: anonymous   Login
Location: Unspecified
(0.0000°N, 0.0000°E)
Time: 23:05:12
(UTC+02:00)
Language:

Meteor 1-31 Rocket - Orbit

View from above orbital plane
View from above orbital plane
View from above satellite
View from above satellite

Ground track
Ground track

The orbit data is extracted from the following two-line orbital elements,

1 12586U 81065B   15246.95740435 +.00000740 +00000-0 +51091-4 0  9998
2 12586 097.4314 234.9790 0018087 282.0165 077.9037 15.08614500853946
Epoch (UTC): 03 September 2015 22:58:39
Eccentricity: 0.0018087
inclination: 97.4314°
perigee height: 528 km
apogee height: 553 km
right ascension of ascending node: 234.9790°
argument of perigee: 282.0165°
revolutions per day: 15.08614500
mean anomaly at epoch: 77.9037°
orbit number at epoch: 85394

The dashed part of the orbit path shows where the satellite is in the earth's shadow,  

DLR